Location: Howard City Library
(37.4684°N, 96.2639°W)
Time: 09:00:31
(UTC+00:00)

USA 229 DEB - Pass Details

Date: 18 February 2020
Orbit: 988 x 1224 km, 63.4° (Epoch: 26 March)

Event Time Altitude Azimuth Distance (km) Brightness Sun altitude
Exits shadow 10:03:51 59° 86° (E) 1,354 4.3 -37.6°
Drops below altitude 10° 10:10:32 10° 135° (SE) 3,158 6.4 -36.4°
Sets 10:13:21 0° 139° (SE) 4,130 7.1 -35.8°
